Find Kosmos-397

NORAD ID: 4964 Int'l Des: 1971-015 Owner: PKO Country: SU operational
LEOELLIPTICAL

Live Position

Loading 3D Globe...

About Kosmos-397

Description loading...

Upcoming Passes

Passes for default location (London). Set your location on the main map for personalized predictions.

Altitude History

Loading altitude history...

Two-Line Element Set

1 04964U 71015A 26106.06127608 -.00000022 00000-0 26801-4 0 9998
2 04964 65.7235 246.5967 1033422 260.9455 87.3407 12.74943547660331
Epoch: Apr 16, 2026 • Age: 15 hours

Current Status

Altitude 2080.5 km
Velocity 6.55 km/s
Sub-Earth Point 49.29°N, 178.96°E
Type other

Most Searched